Flag for Australia Weather past 2 weeks in Port Hedland, Western Australia, Australia

Now
64 °F

Sprinkles. Partly sunny.


Feels Like: 64 °F
Forecast: 62 / 75 °F
Wind: 22 mph from Southeast

Location: Port Hedland Pardoo

Current Time: Apr 21, 2015 at 3:38:43 PM

Latest Report: Apr 21, 2015 at 3:00 PM


Visibility: 5 mi

Pressure: 29.83 "Hg

Humidity: 83%

Dew point: 59 °F

Location of Port HedlandLocation

Historic Weather in Port Hedland — Graph

°F

Port Hedland temperature yesterday

Maximum temperature yesterday: 68 °F (at 12:00 AM)
Minimum temperature yesterday: 64 °F (at 7:30 PM)
Average temperature yesterday: 66 °F

Past Weeks' High & Low Weather Summary

 TemperatureHumidityPressure
High102 °F (Apr 6, 2:00 PM)100% (Apr 11, 1:30 AM)30.07 "Hg (Apr 11, 1:30 AM)
Low63 °F (Apr 21, 12:00 AM)9% (Apr 7, 12:00 PM)29.77 "Hg (Apr 12, 3:00 PM)
Average81 °F61%29.91 "Hg
* Reported Apr 6 2:00 PM — Apr 21 2:30 PM, Port Hedland, Weather by CustomWeather, © 2015

Note: Actual official high and low records may vary slightly from our data, if they occured in-between our weather recording intervals... More about our weather records

Advertising

Port Hedland weather history for previous 24 hours

 ConditionsComfort  
Time TempWeatherWind HumidityBarometerVisibility
2:30 PM
Tue, Apr 21
64 °FPartly sunny.23 mph83%29.83 "HgN/A
2:03 PM64 °FScattered showers. More clouds than sun.22 mph83%29.83 "HgN/A
1:00 PM64 °FLight rain. More clouds than sun.21 mph83%29.86 "HgN/A
12:30 PM64 °FLight rain. More clouds than sun.24 mph83%29.86 "HgN/A
12:00 PM64 °FLight rain. More clouds than sun.18 mph83%29.89 "HgN/A
11:00 AM63 °FLight rain. More clouds than sun.24 mph88%29.89 "HgN/A
10:30 AM63 °FRain. More clouds than sun.22 mph94%29.92 "HgN/A
10:00 AM64 °FLight rain. More clouds than sun.20 mph88%29.95 "HgN/A
9:30 AM64 °FLight rain. Scattered clouds.20 mph88%29.95 "HgN/A
9:00 AM63 °FLight rain. More clouds than sun.18 mph94%29.95 "HgN/A
8:30 AM64 °FLight rain. Mostly cloudy.20 mph83%29.95 "HgN/A
8:00 AM63 °FLight rain. Mostly cloudy.20 mph88%29.95 "HgN/A
7:30 AM63 °FLight rain. Mostly cloudy.21 mph88%29.95 "HgN/A
7:00 AM63 °FLight rain. More clouds than sun.20 mph94%29.92 "HgN/A
6:30 AM63 °FLight rain. More clouds than sun.21 mph94%29.92 "HgN/A
6:00 AM63 °FRain. More clouds than sun.18 mph94%29.92 "HgN/A
5:30 AM63 °FCloudy.18 mph94%29.92 "HgN/A
4:30 AM63 °FOvercast.18 mph94%29.95 "HgN/A
4:00 AM63 °FOvercast.20 mph94%29.95 "HgN/A
3:50 AM63 °FLight rain. Overcast.18 mph94%29.95 "HgN/A
3:00 AM63 °FDrizzle. Overcast.21 mph88%29.95 "HgN/A
2:30 AM63 °FLight rain. Mostly cloudy.21 mph88%29.95 "HgN/A
2:00 AM63 °FPassing clouds.24 mph88%29.95 "HgN/A
1:49 AM63 °FDrizzle. Overcast.23 mph88%29.95 "HgN/A
1:30 AM63 °FOvercast.23 mph88%29.95 "HgN/A
1:00 AM63 °FPassing clouds.29 mph88%29.95 "HgN/A
12:00 AM63 °FPassing clouds.26 mph88%29.95 "HgN/A
11:00 PM
Mon, Apr 20
64 °FClear.28 mph83%29.95 "HgN/A
10:30 PM64 °FClear.26 mph83%29.95 "HgN/A
10:00 PM64 °FClear.26 mph88%29.98 "HgN/A
9:30 PM64 °FPassing clouds.25 mph88%29.98 "HgN/A
9:01 PM64 °FSprinkles. Mostly cloudy.23 mph88%29.98 "HgN/A
8:30 PM64 °FDrizzle. Mostly cloudy.22 mph94%30.01 "HgN/A
8:00 PM64 °FLight rain. Mostly cloudy.25 mph94%29.98 "HgN/A
7:30 PM64 °FDrizzle. Overcast.25 mph94%29.98 "HgN/A
7:00 PM66 °FLight rain. Overcast.20 mph88%29.98 "HgN/A
6:00 PM66 °FDrizzle. Overcast.17 mph88%29.95 "HgN/A
5:59 PM66 °FDrizzle. Overcast.17 mph88%29.95 "HgN/A
5:30 PM66 °FDrizzle. Overcast.18 mph88%29.95 "HgN/A
5:00 PM66 °FDrizzle. Overcast.25 mph88%29.95 "HgN/A
4:30 PM66 °FDrizzle. Overcast.18 mph94%29.95 "HgN/A
4:00 PM66 °FDrizzle. Overcast.18 mph94%29.95 "HgN/A
3:30 PM66 °FLight rain. Overcast.18 mph94%29.95 "HgN/A
3:00 PM66 °FLight rain. More clouds than sun.22 mph94%29.95 "HgN/A
Weather by CustomWeather, © 2015

See weather overviewHow to use our weather pages